Location: Choisy
(48.7685°N, 2.4187°E)
Time: 03:55:05
(UTC+00:00)

CZ-4C R/B - Pass Details

Date: 24 October 2021
Orbit: 403 x 482 km, 97.7° (Epoch: 05 December)

Event Time Altitude Azimuth Distance (km) Brightness Sun altitude
Rises 18:31:29 0° 10° (N) 2,470 6.6 -18.4°
Reaches altitude 10° 18:33:34 10° 6° (N) 1,578 5.6 -18.7°
Maximum altitude 18:36:53 59° 287° (WNW) 512 3.4 -19.3°
Drops below altitude 10° 18:40:05 10° 207° (SSW) 1,520 5.8 -19.8°
Sets 18:42:04 0° 204° (SSW) 2,368 6.8 -20.1°
